GAOFEN-9 01

Last updated on Thu Oct 30 2025 00:02:31 GMT+0000 (Coordinated Universal Time)

1 40894U 15047A 25302.51700625 .00001612 00000+0 20704-3 0 9995 2 40894 97.6609 343.3714 0027815 173.5896 186.5679 14.82250102546014
UTC large
Height (km)
Speed (km/s)
/
Latitude / Longitude
Inclination (degrees)
Orbital Period (minutes)
Azimuth
Elevation
Range (km)
Doppler Factor

Next 0 passes for location: London (51.5072 / 0.1276)

Sorry there are no passes over London.